Location: Mentone
(34.5413°N, 85.5351°W)
Time: 15:42:08
(UTC-05:00)

AO-Echo - Visible Passes

Search period start: 24 April 2018 00:00
Search period end: 04 May 2018 00:00
Orbit: 692 x 812 km, 98.4° (Epoch: 24 April)

Date Brightness Start Highest point End Pass type
(mag) Time Alt. Az. Time Alt. Az. Time Alt. Az.
24 Apr ? 01:41:28 10° NNE 01:42:27 16° NNE 01:42:27 16° NNE visible
24 Apr ? 03:22:18 10° NW 03:22:23 10° NW 03:22:23 10° NW visible
25 Apr ? 02:40:00 10° N 02:41:28 18° NNW 02:41:28 18° NNW visible
26 Apr ? 01:59:02 10° NNE 02:00:33 20° NNE 02:00:33 20° NNE visible
27 Apr ? 01:18:54 10° NNE 01:19:38 14° NE 01:19:38 14° NE visible
27 Apr ? 02:58:07 10° NNW 02:59:34 16° NNW 02:59:34 16° NNW visible
28 Apr ? 02:16:46 10° N 02:18:39 23° N 02:18:39 23° N visible
29 Apr ? 01:36:16 10° NNE 01:37:44 19° NNE 01:37:44 19° NNE visible
29 Apr ? 03:16:36 10° NNW 03:17:40 13° NW 03:17:40 13° NW visible
30 Apr ? 00:56:46 10° NE 00:56:49 10° NE 00:56:49 10° NE visible
30 Apr ? 02:34:38 10° N 02:36:45 23° NNW 02:36:45 23° NNW visible
01 May ? 01:53:48 10° NNE 01:55:50 25° NNE 01:55:50 25° NNE visible
02 May ? 01:13:47 10° NE 01:14:54 16° NE 01:14:54 16° NE visible
02 May ? 02:52:41 10° NNW 02:54:50 20° NW 02:54:50 20° NW visible
03 May ? 02:11:29 10° N 02:13:55 29° N 02:13:55 29° N visible
